DLH7D OBBI-EDDF

Flight info

Callsign DLH7D
Flight time 6h 12m
Altitude 38000
Route BHR B457 NARMI N697 HIL/N0489F400 T540 ENABI L550 NOVPA N697 MENLI L677 CVO L617 NOZ L551 ANTAR DCT RIGRO DCT DISOR DCT LONTA UL608 DOLEV DCT MITNO DCT PETOV DCT VATET DCT SIMBA DCT AKINI T161 ASPAT/N0500F300 T161 DEBHI DEBHI1C
Aircraft A359/H-SDE2E3GHIJ3J4J5LM1ORWXY/LB1D1

Departure

Time 2026-05-08 10:07
Airport Bahrain International Airport (OBBI)

Arrival

Time 2026-05-08 16:20
Airport Frankfurt Main Airport (EDDF)
Time Latitude Longitude Altitude Speed Heading
2026-05-08 09:09 26.27434 50.62291 23 ft 0 kts 213°
2026-05-08 09:56 26.27438 50.62293 23 ft 2 kts 213°
2026-05-08 09:56 26.27447 50.62300 26 ft 2 kts 211°
2026-05-08 09:56 26.27458 50.62306 27 ft 2 kts 197°
2026-05-08 09:57 26.27475 50.62309 28 ft 0 kts 174°
2026-05-08 09:57 26.27488 50.62307 27 ft 3 kts 160°
2026-05-08 09:57 26.27505 50.62297 26 ft 3 kts 140°
2026-05-08 09:58 26.27512 50.62290 26 ft 0 kts 129°
2026-05-08 10:00 26.27508 50.62295 26 ft 4 kts 129°
2026-05-08 10:00 26.27480 50.62337 26 ft 9 kts 125°
2026-05-08 10:00 26.27446 50.62396 27 ft 10 kts 122°
2026-05-08 10:01 26.27408 50.62463 26 ft 11 kts 122°
2026-05-08 10:01 26.27365 50.62538 26 ft 12 kts 122°
2026-05-08 10:01 26.27317 50.62621 24 ft 13 kts 122°
2026-05-08 10:01 26.27266 50.62711 25 ft 14 kts 122°
2026-05-08 10:02 26.27210 50.62808 27 ft 15 kts 122°
2026-05-08 10:02 26.27148 50.62909 25 ft 16 kts 126°
2026-05-08 10:02 26.27082 50.63014 27 ft 17 kts 123°
2026-05-08 10:02 26.27001 50.63149 22 ft 25 kts 124°
2026-05-08 10:03 26.26891 50.63334 21 ft 32 kts 123°
2026-05-08 10:03 26.26761 50.63561 21 ft 36 kts 122°
2026-05-08 10:03 26.26627 50.63795 22 ft 36 kts 122°
2026-05-08 10:03 26.26494 50.64029 24 ft 36 kts 122°
2026-05-08 10:04 26.26361 50.64257 21 ft 34 kts 126°
2026-05-08 10:04 26.26228 50.64479 20 ft 34 kts 122°
2026-05-08 10:04 26.26109 50.64691 20 ft 31 kts 122°
2026-05-08 10:04 26.26022 50.64870 22 ft 19 kts 94°
2026-05-08 10:05 26.26031 50.64926 22 ft 1 kts 70°
2026-05-08 10:05 26.26036 50.64940 24 ft 3 kts 66°
2026-05-08 10:05 26.26051 50.64963 27 ft 4 kts 45°
2026-05-08 10:05 26.26087 50.64993 26 ft 9 kts 27°
2026-05-08 10:06 26.26143 50.64980 26 ft 8 kts 323°
2026-05-08 10:06 26.26178 50.64922 25 ft 10 kts 302°
2026-05-08 10:06 26.26253 50.64791 22 ft 41 kts 303°
2026-05-08 10:06 26.26531 50.64314 20 ft 104 kts 303°
2026-05-08 10:07 26.27017 50.63480 24 ft 155 kts 302°
2026-05-08 10:07 26.27626 50.62380 507 ft 164 kts 309°
2026-05-08 10:07 26.28240 50.61337 1213 ft 164 kts 310°
2026-05-08 10:07 26.28821 50.60138 1528 ft 190 kts 304°
2026-05-08 10:08 26.29450 50.58712 1783 ft 220 kts 303°
2026-05-08 10:08 26.30165 50.57080 2072 ft 247 kts 303°
2026-05-08 10:08 26.30788 50.55231 2625 ft 260 kts 288°
2026-05-08 10:08 26.31041 50.53226 3222 ft 264 kts 280°
2026-05-08 10:09 26.31101 50.51159 3702 ft 270 kts 274°
2026-05-08 10:09 26.31038 50.49052 4219 ft 275 kts 270°
2026-05-08 10:09 26.30912 50.46900 4726 ft 279 kts 268°
2026-05-08 10:09 26.30757 50.44735 5216 ft 283 kts 267°
2026-05-08 10:10 26.30604 50.42546 5798 ft 282 kts 267°
2026-05-08 10:10 26.30476 50.40367 6374 ft 282 kts 267°
2026-05-08 10:10 26.30363 50.38184 6907 ft 282 kts 267°
2026-05-08 10:10 26.30260 50.36001 7473 ft 281 kts 266°
2026-05-08 10:11 26.30215 50.33823 8010 ft 282 kts 273°
2026-05-08 10:11 26.30566 50.31671 8568 ft 283 kts 283°
2026-05-08 10:11 26.31130 50.29570 9137 ft 284 kts 287°
2026-05-08 10:11 26.31809 50.27491 9690 ft 286 kts 289°
2026-05-08 10:12 26.32556 50.25411 10073 ft 293 kts 290°
2026-05-08 10:12 26.33357 50.23260 10281 ft 307 kts 291°
2026-05-08 10:12 26.34190 50.21049 10473 ft 320 kts 291°
2026-05-08 10:12 26.35069 50.18715 10645 ft 332 kts 291°
2026-05-08 10:13 26.35971 50.16285 10869 ft 344 kts 290°
2026-05-08 10:13 26.36890 50.13776 11038 ft 354 kts 290°
2026-05-08 10:13 26.37827 50.11193 11207 ft 364 kts 290°
2026-05-08 10:13 26.38779 50.08540 11459 ft 370 kts 290°
2026-05-08 10:14 26.39740 50.05862 11827 ft 373 kts 290°
2026-05-08 10:14 26.40712 50.03153 12174 ft 376 kts 290°
2026-05-08 10:14 26.41688 50.00435 12552 ft 379 kts 290°
2026-05-08 10:14 26.42673 49.97692 12903 ft 382 kts 290°
2026-05-08 10:15 26.43657 49.94936 13250 ft 384 kts 290°
2026-05-08 10:15 26.44651 49.92158 13609 ft 386 kts 290°
2026-05-08 10:15 26.45651 49.89369 13937 ft 388 kts 290°
2026-05-08 10:15 26.46659 49.86554 14268 ft 391 kts 290°
2026-05-08 10:16 26.47654 49.83765 14612 ft 392 kts 290°
2026-05-08 10:16 26.48492 49.81423 14888 ft 394 kts 289°
2026-05-08 10:16 26.49473 49.78565 15221 ft 395 kts 287°
2026-05-08 10:16 26.50312 49.75637 15557 ft 397 kts 285°
2026-05-08 10:17 26.51104 49.72683 15891 ft 398 kts 284°
2026-05-08 10:17 26.51868 49.69700 16229 ft 400 kts 283°
2026-05-08 10:17 26.52621 49.66689 16567 ft 402 kts 283°
2026-05-08 10:17 26.53371 49.63671 16908 ft 405 kts 283°
2026-05-08 10:18 26.54126 49.60638 17276 ft 406 kts 283°
2026-05-08 10:18 26.54887 49.57589 17619 ft 408 kts 283°
2026-05-08 10:18 26.55653 49.54531 17963 ft 410 kts 283°
2026-05-08 10:18 26.56424 49.51460 18273 ft 412 kts 282°
2026-05-08 10:19 26.57199 49.48375 18578 ft 413 kts 282°
2026-05-08 10:19 26.57976 49.45285 18884 ft 414 kts 282°
2026-05-08 10:19 26.58757 49.42173 19179 ft 416 kts 282°
2026-05-08 10:20 26.60321 49.35933 19773 ft 418 kts 282°
2026-05-08 10:20 26.61105 49.32799 20068 ft 419 kts 282°
2026-05-08 10:20 26.61891 49.29655 20343 ft 421 kts 282°
2026-05-08 10:20 26.62679 49.26495 20636 ft 422 kts 282°
2026-05-08 10:21 26.63467 49.23335 20924 ft 423 kts 282°
2026-05-08 10:21 26.64257 49.20161 21207 ft 424 kts 282°
2026-05-08 10:21 26.65047 49.16987 21492 ft 425 kts 282°
2026-05-08 10:21 26.65829 49.13838 21770 ft 426 kts 282°
2026-05-08 10:22 26.66623 49.10642 22032 ft 427 kts 282°
2026-05-08 10:22 26.67418 49.07439 22312 ft 428 kts 282°
2026-05-08 10:22 26.68215 49.04222 22583 ft 429 kts 282°
2026-05-08 10:22 26.69013 49.00997 22864 ft 430 kts 282°
2026-05-08 10:23 26.69811 48.97766 23116 ft 432 kts 282°
2026-05-08 10:23 26.70611 48.94530 23364 ft 433 kts 282°
2026-05-08 10:23 26.71414 48.91274 23590 ft 435 kts 281°
2026-05-08 10:23 26.72216 48.88019 23810 ft 436 kts 281°
2026-05-08 10:24 26.73024 48.84738 24022 ft 437 kts 281°
2026-05-08 10:24 26.73829 48.81464 24237 ft 437 kts 281°
2026-05-08 10:24 26.74636 48.78180 24452 ft 438 kts 281°
2026-05-08 10:24 26.75446 48.74881 24666 ft 439 kts 281°
2026-05-08 10:25 26.76113 48.71556 24870 ft 437 kts 275°
2026-05-08 10:25 26.76409 48.68190 25079 ft 433 kts 268°
2026-05-08 10:25 26.76458 48.64822 25295 ft 433 kts 266°
2026-05-08 10:25 26.76416 48.61462 25513 ft 433 kts 264°
2026-05-08 10:26 26.76322 48.58093 25728 ft 433 kts 264°
2026-05-08 10:26 26.76209 48.54726 25948 ft 434 kts 264°
2026-05-08 10:26 26.76094 48.51357 26200 ft 434 kts 264°
2026-05-08 10:26 26.75984 48.47975 26426 ft 434 kts 264°
2026-05-08 10:27 26.75881 48.44587 26644 ft 435 kts 264°
2026-05-08 10:27 26.75783 48.41205 26883 ft 436 kts 264°
2026-05-08 10:27 26.75688 48.37804 27105 ft 436 kts 264°
2026-05-08 10:27 26.75594 48.34412 27324 ft 437 kts 264°
2026-05-08 10:28 26.75499 48.30999 27533 ft 438 kts 264°
2026-05-08 10:28 26.75406 48.27631 27731 ft 439 kts 264°
2026-05-08 10:28 26.75310 48.24196 27952 ft 440 kts 264°
2026-05-08 10:28 26.75213 48.20764 28167 ft 441 kts 264°
2026-05-08 10:29 26.75115 48.17327 28402 ft 442 kts 263°
2026-05-08 10:29 26.75016 48.13883 28625 ft 443 kts 263°
2026-05-08 10:29 26.74916 48.10428 28853 ft 444 kts 263°
2026-05-08 10:29 26.74814 48.06963 29073 ft 446 kts 263°
2026-05-08 10:30 26.74711 48.03493 29274 ft 447 kts 263°
2026-05-08 10:30 26.74607 48.00004 29490 ft 448 kts 263°
2026-05-08 10:30 26.74502 47.96510 29696 ft 450 kts 263°
2026-05-08 10:30 26.74397 47.93051 29915 ft 451 kts 263°
2026-05-08 10:31 26.74302 47.89551 30111 ft 453 kts 265°
2026-05-08 10:31 26.74383 47.86007 30288 ft 456 kts 267°
2026-05-08 10:31 26.74526 47.82457 30473 ft 457 kts 268°
2026-05-08 10:31 26.74696 47.78900 30665 ft 458 kts 268°
2026-05-08 10:32 26.74879 47.75337 30857 ft 459 kts 268°
2026-05-08 10:32 26.75067 47.71762 31046 ft 461 kts 268°
2026-05-08 10:32 26.75254 47.68178 31233 ft 462 kts 268°
2026-05-08 10:32 26.75438 47.64586 31411 ft 463 kts 267°
2026-05-08 10:33 26.75618 47.60982 31600 ft 463 kts 267°
2026-05-08 10:33 26.75797 47.57391 31873 ft 462 kts 267°
2026-05-08 10:33 26.75975 47.53803 32147 ft 461 kts 266°
2026-05-08 10:33 26.76148 47.50273 32410 ft 459 kts 266°
2026-05-08 10:34 26.76321 47.46705 32674 ft 458 kts 266°
2026-05-08 10:34 26.76493 47.43142 32977 ft 457 kts 266°
2026-05-08 10:34 26.76670 47.39600 33272 ft 457 kts 266°
2026-05-08 10:34 26.77045 47.36048 33564 ft 460 kts 270°
2026-05-08 10:35 26.77534 47.32510 33882 ft 459 kts 271°
2026-05-08 10:35 26.78059 47.29000 34201 ft 457 kts 271°
2026-05-08 10:35 26.78602 47.25501 34520 ft 455 kts 271°
2026-05-08 10:35 26.79150 47.22019 34859 ft 452 kts 271°
2026-05-08 10:36 26.79692 47.18571 35202 ft 449 kts 271°
2026-05-08 10:36 26.80226 47.15146 35529 ft 446 kts 271°
2026-05-08 10:36 26.80755 47.11726 35830 ft 444 kts 271°
2026-05-08 10:36 26.81276 47.08329 36128 ft 442 kts 271°
2026-05-08 10:37 26.81795 47.04933 36426 ft 441 kts 271°
2026-05-08 10:37 26.82309 47.01559 36723 ft 439 kts 271°
2026-05-08 10:37 26.82820 46.98195 37037 ft 437 kts 271°
2026-05-08 10:37 26.83327 46.94856 37348 ft 435 kts 271°
2026-05-08 10:38 26.83833 46.91523 37655 ft 433 kts 270°
2026-05-08 10:38 26.84336 46.88201 37940 ft 431 kts 270°
2026-05-08 10:38 26.84836 46.84885 38000 ft 432 kts 270°
2026-05-08 10:39 26.85826 46.78298 38016 ft 432 kts 270°
2026-05-08 10:39 26.86830 46.71611 38019 ft 433 kts 270°
2026-05-08 10:40 26.87819 46.65005 38013 ft 433 kts 270°
2026-05-08 10:40 26.88813 46.58356 38018 ft 433 kts 270°
2026-05-08 10:41 26.89806 46.51696 38016 ft 433 kts 270°
2026-05-08 10:41 26.90633 46.46124 38015 ft 433 kts 270°
2026-05-08 10:42 26.91610 46.39519 38019 ft 432 kts 270°
2026-05-08 10:42 26.92596 46.32867 38021 ft 432 kts 270°
2026-05-08 10:43 26.93580 46.26216 38022 ft 432 kts 270°
2026-05-08 10:43 26.94559 46.19575 38020 ft 432 kts 270°
2026-05-08 10:44 26.95535 46.12930 38020 ft 432 kts 270°
2026-05-08 10:44 26.96509 46.06279 38021 ft 432 kts 270°
2026-05-08 10:45 26.97479 45.99638 38019 ft 431 kts 270°
2026-05-08 10:45 26.98443 45.93007 38017 ft 431 kts 270°
2026-05-08 10:46 26.99405 45.86371 38011 ft 431 kts 270°
2026-05-08 10:46 27.00363 45.79736 38015 ft 430 kts 270°
2026-05-08 10:47 27.01310 45.73162 38006 ft 430 kts 270°
2026-05-08 10:47 27.02259 45.66550 38016 ft 429 kts 270°
2026-05-08 10:48 27.03203 45.59945 38007 ft 428 kts 270°
2026-05-08 10:48 27.04142 45.53360 38008 ft 427 kts 269°
2026-05-08 10:49 27.05078 45.46773 37999 ft 427 kts 269°
2026-05-08 10:49 27.05930 45.40211 38001 ft 424 kts 268°
2026-05-08 10:50 27.06654 45.33652 38000 ft 423 kts 267°
2026-05-08 10:50 27.07359 45.27088 37999 ft 424 kts 267°
2026-05-08 10:51 27.08074 45.20556 37997 ft 425 kts 267°
2026-05-08 10:51 27.08801 45.13966 37997 ft 426 kts 267°
2026-05-08 10:52 27.09530 45.07363 37996 ft 426 kts 267°
2026-05-08 10:52 27.10256 45.00757 37997 ft 427 kts 267°
2026-05-08 10:53 27.10981 44.94122 37997 ft 428 kts 267°
2026-05-08 10:53 27.11704 44.87477 37995 ft 428 kts 267°
2026-05-08 10:54 27.12419 44.80878 37991 ft 428 kts 267°
2026-05-08 10:54 27.13135 44.74244 37992 ft 429 kts 267°
2026-05-08 10:55 27.13849 44.67593 37993 ft 429 kts 267°
2026-05-08 10:55 27.14562 44.60935 37992 ft 429 kts 267°
2026-05-08 10:56 27.15271 44.54288 37988 ft 429 kts 267°
2026-05-08 10:56 27.15978 44.47617 37989 ft 429 kts 267°
2026-05-08 10:57 27.16679 44.40965 37988 ft 429 kts 266°
2026-05-08 10:57 27.17724 44.30965 37996 ft 429 kts 266°
2026-05-08 10:58 27.18413 44.24304 37995 ft 430 kts 266°
2026-05-08 10:58 27.19099 44.17636 37992 ft 429 kts 266°
2026-05-08 10:59 27.19778 44.11014 38001 ft 430 kts 266°
2026-05-08 10:59 27.20458 44.04348 38006 ft 430 kts 266°
2026-05-08 11:00 27.21135 43.97679 38007 ft 430 kts 266°
2026-05-08 11:00 27.21809 43.91010 38011 ft 430 kts 266°
2026-05-08 11:01 27.22481 43.84328 38011 ft 430 kts 266°
2026-05-08 11:01 27.23148 43.77663 38019 ft 430 kts 266°
2026-05-08 11:02 27.24144 43.67649 38008 ft 430 kts 267°
2026-05-08 11:03 27.24806 43.60969 38012 ft 430 kts 267°
2026-05-08 11:03 27.25466 43.54280 38010 ft 430 kts 267°
2026-05-08 11:04 27.26123 43.47594 38012 ft 430 kts 267°
2026-05-08 11:04 27.26776 43.40910 38014 ft 430 kts 267°
2026-05-08 11:05 27.27426 43.34223 38016 ft 430 kts 267°
2026-05-08 11:05 27.28070 43.27574 38019 ft 430 kts 267°
2026-05-08 11:06 27.28713 43.20892 38015 ft 430 kts 267°
2026-05-08 11:06 27.29353 43.14207 38019 ft 430 kts 267°
2026-05-08 11:07 27.29991 43.07508 38018 ft 431 kts 267°
2026-05-08 11:07 27.30627 43.00800 38001 ft 431 kts 267°
2026-05-08 11:08 27.31259 42.94089 38001 ft 432 kts 267°
2026-05-08 11:08 27.31890 42.87361 38006 ft 433 kts 267°
2026-05-08 11:09 27.32519 42.80623 38019 ft 433 kts 267°
2026-05-08 11:09 27.33141 42.73918 38009 ft 434 kts 267°
2026-05-08 11:10 27.33766 42.67157 38018 ft 434 kts 267°
2026-05-08 11:10 27.34387 42.60388 38022 ft 435 kts 267°
2026-05-08 11:11 27.35005 42.53625 38020 ft 435 kts 267°
2026-05-08 11:11 27.35621 42.46847 38023 ft 436 kts 267°
2026-05-08 11:12 27.36234 42.40057 38025 ft 436 kts 267°
2026-05-08 11:12 27.36841 42.33296 38030 ft 437 kts 267°
2026-05-08 11:13 27.37450 42.26481 38034 ft 438 kts 267°
2026-05-08 11:13 27.38055 42.19665 38032 ft 438 kts 267°
2026-05-08 11:14 27.38659 42.12831 38031 ft 439 kts 267°
2026-05-08 11:14 27.39260 42.05979 38035 ft 440 kts 267°
2026-05-08 11:15 27.39860 41.99113 38040 ft 441 kts 267°
2026-05-08 11:15 27.40457 41.92242 38043 ft 441 kts 267°
2026-05-08 11:16 27.41050 41.85364 38048 ft 442 kts 267°
2026-05-08 11:16 27.41638 41.78511 38046 ft 443 kts 267°
2026-05-08 11:17 27.42372 41.71606 38047 ft 449 kts 273°
2026-05-08 11:17 27.44476 41.64847 38050 ft 470 kts 289°
2026-05-08 11:18 27.47815 41.58445 38049 ft 476 kts 292°
2026-05-08 11:18 27.51371 41.52135 38042 ft 477 kts 293°
2026-05-08 11:19 27.54942 41.45808 38031 ft 478 kts 293°
2026-05-08 11:19 27.58488 41.39459 38021 ft 479 kts 292°
2026-05-08 11:20 27.61996 41.33123 38011 ft 480 kts 293°
2026-05-08 11:20 27.65525 41.26729 38009 ft 480 kts 293°
2026-05-08 11:21 27.69053 41.20327 38007 ft 480 kts 293°
2026-05-08 11:21 27.72585 41.13912 38009 ft 480 kts 293°
2026-05-08 11:22 27.76112 41.07499 38006 ft 481 kts 293°
2026-05-08 11:22 27.79639 41.01080 38015 ft 481 kts 294°
2026-05-08 11:23 27.83166 40.94652 38004 ft 481 kts 294°
2026-05-08 11:23 27.86662 40.88267 38016 ft 481 kts 294°
2026-05-08 11:24 27.90190 40.81818 38011 ft 481 kts 294°
2026-05-08 11:24 27.93709 40.75372 38019 ft 481 kts 295°
2026-05-08 11:25 27.97201 40.68968 38025 ft 481 kts 295°
2026-05-08 11:25 28.00711 40.62521 38029 ft 481 kts 295°
2026-05-08 11:26 28.04216 40.56076 38030 ft 480 kts 295°
2026-05-08 11:26 28.07122 40.50723 38034 ft 480 kts 296°
2026-05-08 11:27 28.10616 40.44277 38035 ft 479 kts 296°
2026-05-08 11:27 28.14097 40.37848 38037 ft 479 kts 296°
2026-05-08 11:28 28.17575 40.31413 38039 ft 478 kts 296°
2026-05-08 11:28 28.21044 40.24986 38043 ft 477 kts 297°
2026-05-08 11:29 28.24504 40.18573 38044 ft 476 kts 297°
2026-05-08 11:29 28.27948 40.12179 38046 ft 475 kts 297°
2026-05-08 11:30 28.31693 40.05991 38053 ft 478 kts 303°
2026-05-08 11:30 28.35832 40.00069 38049 ft 478 kts 304°
2026-05-08 11:31 28.39986 39.94245 38054 ft 477 kts 305°
2026-05-08 11:31 28.44172 39.88386 38060 ft 477 kts 305°
2026-05-08 11:32 28.48340 39.82530 38047 ft 476 kts 305°
2026-05-08 11:32 28.52500 39.76667 38051 ft 475 kts 305°
2026-05-08 11:33 28.56638 39.70819 38056 ft 474 kts 305°
2026-05-08 11:33 28.60771 39.64957 38057 ft 474 kts 305°
2026-05-08 11:34 28.64887 39.59103 38058 ft 473 kts 305°
2026-05-08 11:34 28.68969 39.53292 38061 ft 472 kts 305°
2026-05-08 11:35 28.73082 39.47442 38061 ft 472 kts 306°
2026-05-08 11:35 28.77198 39.41604 38061 ft 471 kts 306°
2026-05-08 11:36 28.81299 39.35787 38061 ft 471 kts 306°
2026-05-08 11:36 28.85396 39.29950 38061 ft 470 kts 306°
2026-05-08 11:37 28.89477 39.24116 38059 ft 470 kts 306°
2026-05-08 11:37 28.93550 39.18281 38055 ft 470 kts 306°
2026-05-08 11:38 28.97618 39.12447 38055 ft 469 kts 306°
2026-05-08 11:38 29.01684 39.06606 38056 ft 469 kts 306°
2026-05-08 11:39 29.05710 39.00816 38056 ft 468 kts 306°
2026-05-08 11:39 29.09201 38.94533 38057 ft 464 kts 293°
2026-05-08 11:40 29.10961 38.87478 38057 ft 461 kts 276°
2026-05-08 11:40 29.11187 38.80151 38055 ft 462 kts 270°
2026-05-08 11:41 29.11093 38.72858 38050 ft 462 kts 269°
2026-05-08 11:41 29.10985 38.65506 38055 ft 462 kts 269°
2026-05-08 11:42 29.10918 38.58141 38052 ft 462 kts 270°
2026-05-08 11:42 29.10870 38.50787 38053 ft 463 kts 270°
2026-05-08 11:43 29.10823 38.43419 38049 ft 463 kts 270°
2026-05-08 11:43 29.10770 38.36059 38045 ft 463 kts 270°
2026-05-08 11:44 29.10711 38.28729 38044 ft 464 kts 270°
2026-05-08 11:44 29.10647 38.21363 38042 ft 464 kts 270°
2026-05-08 11:45 29.10579 38.13989 38038 ft 464 kts 270°
2026-05-08 11:45 29.10508 38.06600 38035 ft 464 kts 270°
2026-05-08 11:46 29.10430 37.99226 38034 ft 464 kts 271°
2026-05-08 11:46 29.10349 37.91846 38034 ft 464 kts 271°
2026-05-08 11:47 29.10266 37.84465 38036 ft 464 kts 271°
2026-05-08 11:47 29.10180 37.77079 38034 ft 464 kts 271°
2026-05-08 11:48 29.10089 37.69713 38034 ft 463 kts 271°
2026-05-08 11:48 29.09994 37.62382 38037 ft 463 kts 272°
2026-05-08 11:49 29.09893 37.55019 38038 ft 463 kts 272°
2026-05-08 11:49 29.09797 37.47657 38036 ft 462 kts 272°
2026-05-08 11:50 29.09734 37.40320 38039 ft 461 kts 273°
2026-05-08 11:50 29.09681 37.32992 38039 ft 460 kts 274°
2026-05-08 11:51 29.09618 37.25688 38033 ft 459 kts 274°
2026-05-08 11:51 29.09547 37.18389 38028 ft 458 kts 274°
2026-05-08 11:52 29.09467 37.11107 38031 ft 457 kts 274°
2026-05-08 11:52 29.09390 37.03839 38035 ft 456 kts 274°
2026-05-08 11:53 29.09314 36.96598 38016 ft 455 kts 275°
2026-05-08 11:53 29.09235 36.89417 38021 ft 454 kts 275°
2026-05-08 11:54 29.09152 36.82205 38001 ft 453 kts 275°
2026-05-08 11:54 29.09065 36.75020 38012 ft 452 kts 275°
2026-05-08 11:55 29.08975 36.67844 38009 ft 451 kts 275°
2026-05-08 11:55 29.08881 36.60686 37996 ft 450 kts 275°
2026-05-08 11:56 29.08783 36.53533 37984 ft 449 kts 275°
2026-05-08 11:56 29.08674 36.46388 37975 ft 449 kts 275°
2026-05-08 11:57 29.08505 36.39241 37973 ft 449 kts 275°
2026-05-08 11:57 29.08303 36.32111 37968 ft 449 kts 275°
2026-05-08 11:58 29.08099 36.25016 37968 ft 449 kts 275°
2026-05-08 11:58 29.07896 36.17891 37971 ft 448 kts 275°
2026-05-08 11:59 29.07587 36.07201 37966 ft 448 kts 275°
2026-05-08 11:59 29.07377 36.00071 37967 ft 448 kts 274°
2026-05-08 12:00 29.07163 35.92952 37969 ft 448 kts 274°
2026-05-08 12:00 29.06945 35.85816 37972 ft 449 kts 274°
2026-05-08 12:01 29.06724 35.78694 37978 ft 449 kts 274°
2026-05-08 12:01 29.06506 35.71564 37983 ft 448 kts 274°
2026-05-08 12:02 29.06285 35.64476 37978 ft 449 kts 274°
2026-05-08 12:02 29.06057 35.57339 37975 ft 449 kts 274°
2026-05-08 12:03 29.05824 35.50200 37983 ft 450 kts 274°
2026-05-08 12:03 29.05587 35.43058 37977 ft 450 kts 274°
2026-05-08 12:04 29.05343 35.35913 37978 ft 450 kts 274°
2026-05-08 12:04 29.05095 35.28764 37978 ft 450 kts 274°
2026-05-08 12:05 29.04846 35.21617 37963 ft 450 kts 274°
2026-05-08 12:05 29.04586 35.14509 37969 ft 450 kts 274°
2026-05-08 12:06 29.04325 35.07364 37961 ft 450 kts 274°
2026-05-08 12:06 29.04060 35.00211 37962 ft 450 kts 274°
2026-05-08 12:07 29.03789 34.93071 37958 ft 449 kts 274°
2026-05-08 12:07 29.03519 34.85935 37958 ft 450 kts 274°
2026-05-08 12:08 29.03328 34.78796 37957 ft 449 kts 275°
2026-05-08 12:08 29.03229 34.71657 37957 ft 448 kts 276°
2026-05-08 12:09 29.03999 34.64696 37963 ft 437 kts 289°
2026-05-08 12:09 29.05775 34.58084 37969 ft 434 kts 292°
2026-05-08 12:10 29.07706 34.51591 37971 ft 434 kts 293°
2026-05-08 12:10 29.09684 34.45050 37980 ft 435 kts 293°
2026-05-08 12:11 29.11629 34.38490 37989 ft 435 kts 292°
2026-05-08 12:11 29.13547 34.31919 38000 ft 436 kts 292°
2026-05-08 12:12 29.15137 34.26454 38007 ft 436 kts 292°
2026-05-08 12:12 29.17050 34.19872 38016 ft 436 kts 292°
2026-05-08 12:13 29.18963 34.13280 38016 ft 436 kts 292°
2026-05-08 12:13 29.20874 34.06686 38023 ft 436 kts 292°
2026-05-08 12:14 29.22779 34.00095 38019 ft 436 kts 292°
2026-05-08 12:14 29.24682 33.93498 38022 ft 436 kts 292°
2026-05-08 12:15 29.26582 33.86900 38023 ft 437 kts 292°
2026-05-08 12:15 29.28480 33.80293 38022 ft 437 kts 292°
2026-05-08 12:16 29.30368 33.73713 38021 ft 437 kts 292°
2026-05-08 12:16 29.32262 33.67095 38023 ft 437 kts 292°
2026-05-08 12:17 29.34154 33.60471 38017 ft 437 kts 292°
2026-05-08 12:17 29.36041 33.53850 38023 ft 437 kts 292°
2026-05-08 12:18 29.37923 33.47231 38016 ft 437 kts 292°
2026-05-08 12:18 29.39801 33.40614 38012 ft 437 kts 292°
2026-05-08 12:19 29.41678 33.33987 38017 ft 437 kts 292°
2026-05-08 12:19 29.43552 33.27356 38016 ft 437 kts 292°
2026-05-08 12:20 29.45424 33.20716 38009 ft 437 kts 292°
2026-05-08 12:20 29.47291 33.14084 38007 ft 437 kts 292°
2026-05-08 12:21 29.49143 33.07490 38019 ft 437 kts 291°
2026-05-08 12:21 29.51002 33.00856 37993 ft 437 kts 291°
2026-05-08 12:22 29.52859 32.94213 38012 ft 437 kts 291°
2026-05-08 12:22 29.54716 32.87557 38017 ft 437 kts 291°
2026-05-08 12:23 29.56569 32.80902 38017 ft 437 kts 291°
2026-05-08 12:23 29.58419 32.74243 38018 ft 437 kts 291°
2026-05-08 12:24 29.60246 32.67567 38021 ft 438 kts 290°
2026-05-08 12:24 29.61850 32.60849 38028 ft 439 kts 288°
2026-05-08 12:25 29.63346 32.54040 38033 ft 439 kts 288°
2026-05-08 12:25 29.64846 32.47238 38037 ft 439 kts 288°
2026-05-08 12:26 29.66370 32.40437 38041 ft 439 kts 288°
2026-05-08 12:26 29.67904 32.33630 38046 ft 440 kts 288°
2026-05-08 12:27 29.69437 32.26817 38052 ft 440 kts 288°
2026-05-08 12:27 29.70969 32.19990 38049 ft 440 kts 288°
2026-05-08 12:28 29.72493 32.13169 38060 ft 440 kts 288°
2026-05-08 12:28 29.74012 32.06355 38060 ft 441 kts 288°
2026-05-08 12:29 29.75533 31.99518 38066 ft 441 kts 287°
2026-05-08 12:29 29.77041 31.92720 38066 ft 441 kts 287°
2026-05-08 12:30 29.79147 31.86138 38068 ft 437 kts 299°
2026-05-08 12:30 29.82443 31.80289 38071 ft 435 kts 306°
2026-05-08 12:31 29.85888 31.74902 38072 ft 436 kts 308°
2026-05-08 12:31 29.89530 31.69326 38073 ft 436 kts 308°
2026-05-08 12:32 29.93170 31.63728 38069 ft 436 kts 308°
2026-05-08 12:32 29.96809 31.58119 38051 ft 436 kts 308°
2026-05-08 12:33 30.00443 31.52500 38045 ft 437 kts 307°
2026-05-08 12:33 30.04051 31.46908 38049 ft 437 kts 307°
2026-05-08 12:34 30.07684 31.41273 38047 ft 437 kts 308°
2026-05-08 12:34 30.11799 31.36101 38047 ft 437 kts 316°
2026-05-08 12:35 30.16233 31.31259 38046 ft 438 kts 317°
2026-05-08 12:35 30.20712 31.26491 38042 ft 438 kts 317°
2026-05-08 12:36 30.25194 31.21710 38038 ft 438 kts 317°
2026-05-08 12:36 30.29669 31.16904 38036 ft 439 kts 317°
2026-05-08 12:37 30.34137 31.12086 38037 ft 439 kts 316°
2026-05-08 12:37 30.38608 31.07256 38038 ft 439 kts 316°
2026-05-08 12:38 30.43071 31.02430 38042 ft 439 kts 316°
2026-05-08 12:38 30.47539 30.97593 38044 ft 439 kts 316°
2026-05-08 12:39 30.51975 30.92784 38048 ft 439 kts 316°
2026-05-08 12:39 30.56441 30.87938 38054 ft 439 kts 316°
2026-05-08 12:40 30.60905 30.83086 38057 ft 439 kts 316°
2026-05-08 12:40 30.65365 30.78231 38060 ft 439 kts 316°
2026-05-08 12:41 30.69824 30.73373 38064 ft 439 kts 316°
2026-05-08 12:41 30.74276 30.68515 38068 ft 439 kts 316°
2026-05-08 12:42 30.78718 30.63662 38074 ft 439 kts 316°
2026-05-08 12:42 30.83164 30.58797 38075 ft 438 kts 316°
2026-05-08 12:43 30.87579 30.53960 38080 ft 438 kts 316°
2026-05-08 12:43 30.92018 30.49091 38089 ft 438 kts 316°
2026-05-08 12:44 30.96422 30.44253 38090 ft 438 kts 316°
2026-05-08 12:44 31.00857 30.39375 38100 ft 438 kts 316°
2026-05-08 12:45 31.05277 30.34484 38104 ft 437 kts 314°
2026-05-08 12:45 31.09021 30.28921 38114 ft 437 kts 301°
2026-05-08 12:46 31.11424 30.22401 38113 ft 439 kts 291°
2026-05-08 12:46 31.13276 30.15653 38110 ft 439 kts 289°
2026-05-08 12:47 31.15076 30.08791 38106 ft 439 kts 289°
2026-05-08 12:47 31.17029 30.02107 38108 ft 437 kts 295°
2026-05-08 12:48 31.20185 29.96084 38102 ft 435 kts 310°
2026-05-08 12:48 31.24693 29.91406 38102 ft 436 kts 325°
2026-05-08 12:49 31.29987 29.87893 38110 ft 437 kts 329°
2026-05-08 12:49 31.35378 29.84594 38117 ft 437 kts 330°
2026-05-08 12:50 31.40774 29.81301 38127 ft 436 kts 329°
2026-05-08 12:50 31.46098 29.77997 38134 ft 436 kts 329°
2026-05-08 12:51 31.54118 29.72960 38137 ft 435 kts 329°
2026-05-08 12:52 31.59441 29.69608 38139 ft 434 kts 329°
2026-05-08 12:52 31.67428 29.64572 38138 ft 433 kts 328°
2026-05-08 12:53 31.72705 29.61241 38139 ft 433 kts 328°
2026-05-08 12:53 31.78012 29.57887 38140 ft 433 kts 328°
2026-05-08 12:54 31.83313 29.54532 38139 ft 432 kts 328°
2026-05-08 12:54 31.88610 29.51175 38137 ft 432 kts 328°
2026-05-08 12:55 31.93909 29.47813 38132 ft 432 kts 328°
2026-05-08 12:55 31.98308 29.45018 38134 ft 432 kts 328°
2026-05-08 12:56 32.03593 29.41656 38138 ft 432 kts 328°
2026-05-08 12:56 32.08876 29.38291 38138 ft 431 kts 328°
2026-05-08 12:57 32.14152 29.34925 38138 ft 431 kts 328°
2026-05-08 12:57 32.19438 29.31550 38140 ft 431 kts 328°
2026-05-08 12:58 32.24719 29.28171 38141 ft 432 kts 327°
2026-05-08 12:58 32.30006 29.24782 38146 ft 432 kts 327°
2026-05-08 12:59 32.35284 29.21394 38147 ft 432 kts 327°
2026-05-08 12:59 32.40579 29.17990 38133 ft 432 kts 327°
2026-05-08 13:00 32.45830 29.14611 38136 ft 432 kts 327°
2026-05-08 13:00 32.51122 29.11201 38141 ft 433 kts 327°
2026-05-08 13:01 32.56413 29.07786 38143 ft 433 kts 327°
2026-05-08 13:01 32.61703 29.04368 38148 ft 433 kts 327°
2026-05-08 13:02 32.66995 29.00944 38147 ft 433 kts 327°
2026-05-08 13:02 32.72293 28.97511 38145 ft 433 kts 327°
2026-05-08 13:03 32.77584 28.94077 38149 ft 434 kts 326°
2026-05-08 13:03 32.82855 28.90653 38153 ft 434 kts 326°
2026-05-08 13:04 32.88173 28.87193 38152 ft 435 kts 326°
2026-05-08 13:04 32.93482 28.83734 38158 ft 435 kts 326°
2026-05-08 13:05 32.98796 28.80267 38152 ft 435 kts 326°
2026-05-08 13:05 33.04077 28.76817 38154 ft 435 kts 326°
2026-05-08 13:06 33.09385 28.73344 38155 ft 435 kts 326°
2026-05-08 13:06 33.14696 28.69865 38156 ft 435 kts 326°
2026-05-08 13:07 33.20013 28.66377 38157 ft 435 kts 326°
2026-05-08 13:07 33.25330 28.62884 38156 ft 436 kts 326°
2026-05-08 13:08 33.30606 28.59414 38156 ft 435 kts 326°
2026-05-08 13:08 33.35950 28.55893 38159 ft 435 kts 326°
2026-05-08 13:09 33.41249 28.52397 38157 ft 436 kts 326°
2026-05-08 13:09 33.46523 28.48912 38159 ft 436 kts 326°
2026-05-08 13:10 33.51830 28.45402 38159 ft 436 kts 326°
2026-05-08 13:10 33.57141 28.41883 38161 ft 436 kts 326°
2026-05-08 13:11 33.62443 28.38366 38161 ft 436 kts 326°
2026-05-08 13:11 33.67746 28.34842 38162 ft 436 kts 326°
2026-05-08 13:12 33.73058 28.31308 38165 ft 436 kts 326°
2026-05-08 13:12 33.78360 28.27775 38163 ft 436 kts 326°
2026-05-08 13:13 33.83734 28.24338 38162 ft 437 kts 327°
2026-05-08 13:13 33.89141 28.21087 38164 ft 437 kts 328°
2026-05-08 13:14 33.94601 28.17841 38161 ft 437 kts 328°
2026-05-08 13:14 34.00048 28.14586 38163 ft 437 kts 328°
2026-05-08 13:15 34.05488 28.11337 38159 ft 436 kts 328°
2026-05-08 13:15 34.10931 28.08079 38160 ft 436 kts 328°
2026-05-08 13:16 34.16326 28.04828 38160 ft 436 kts 328°
2026-05-08 13:16 34.21751 28.01547 38161 ft 435 kts 327°
2026-05-08 13:17 34.27163 27.98267 38163 ft 435 kts 327°
2026-05-08 13:17 34.32568 27.94987 38164 ft 434 kts 327°
2026-05-08 13:18 34.37973 27.91703 38164 ft 434 kts 327°
2026-05-08 13:18 34.43367 27.88421 38163 ft 434 kts 327°
2026-05-08 13:19 34.48758 27.85136 38161 ft 433 kts 327°
2026-05-08 13:19 34.54146 27.81848 38160 ft 433 kts 327°
2026-05-08 13:20 34.59527 27.78559 38161 ft 433 kts 327°
2026-05-08 13:20 34.64915 27.75261 38159 ft 433 kts 327°
2026-05-08 13:21 34.70294 27.71964 38161 ft 433 kts 327°
2026-05-08 13:21 34.75674 27.68661 38155 ft 433 kts 327°
2026-05-08 13:22 34.81067 27.65346 38163 ft 434 kts 327°
2026-05-08 13:22 34.86458 27.62025 38165 ft 434 kts 327°
2026-05-08 13:23 34.91816 27.58722 38147 ft 435 kts 327°
2026-05-08 13:23 34.97225 27.55383 38150 ft 436 kts 326°
2026-05-08 13:24 35.02638 27.52035 38170 ft 436 kts 326°
2026-05-08 13:24 35.08054 27.48683 38155 ft 437 kts 326°
2026-05-08 13:25 35.13483 27.45316 38156 ft 437 kts 326°
2026-05-08 13:25 35.18914 27.41942 38151 ft 438 kts 326°
2026-05-08 13:26 35.24351 27.38560 38152 ft 439 kts 326°
2026-05-08 13:26 35.29805 27.35162 38156 ft 439 kts 326°
2026-05-08 13:27 35.35261 27.31757 38160 ft 440 kts 326°
2026-05-08 13:27 35.40726 27.28342 38155 ft 440 kts 326°
2026-05-08 13:28 35.46156 27.24944 38160 ft 441 kts 326°
2026-05-08 13:28 35.51621 27.21518 38155 ft 441 kts 326°
2026-05-08 13:29 35.57100 27.18077 38155 ft 442 kts 326°
2026-05-08 13:29 35.62582 27.14629 38149 ft 443 kts 326°
2026-05-08 13:30 35.68071 27.11173 38143 ft 443 kts 326°
2026-05-08 13:30 35.73563 27.07710 38139 ft 443 kts 327°
2026-05-08 13:31 35.79057 27.04241 38130 ft 444 kts 327°
2026-05-08 13:31 35.84517 27.00786 38129 ft 444 kts 327°
2026-05-08 13:32 35.90013 26.97302 38132 ft 444 kts 327°
2026-05-08 13:32 35.95518 26.93808 38128 ft 445 kts 327°
2026-05-08 13:33 36.01023 26.90309 38126 ft 445 kts 327°
2026-05-08 13:33 36.06524 26.86806 38126 ft 445 kts 327°
2026-05-08 13:34 36.12029 26.83296 38122 ft 445 kts 327°
2026-05-08 13:34 36.17546 26.79772 38131 ft 446 kts 327°
2026-05-08 13:35 36.23055 26.76248 38124 ft 446 kts 327°
2026-05-08 13:35 36.28570 26.72714 38113 ft 446 kts 327°
2026-05-08 13:36 36.34087 26.69174 38116 ft 446 kts 327°
2026-05-08 13:36 36.39600 26.65627 38120 ft 447 kts 326°
2026-05-08 13:37 36.45087 26.62095 38122 ft 447 kts 326°
2026-05-08 13:37 36.50610 26.58535 38122 ft 447 kts 326°
2026-05-08 13:38 36.56135 26.54966 38122 ft 447 kts 326°
2026-05-08 13:38 36.60769 26.51969 38118 ft 448 kts 326°
2026-05-08 13:39 36.66296 26.48387 38118 ft 448 kts 326°
2026-05-08 13:39 36.71782 26.44826 38116 ft 448 kts 326°
2026-05-08 13:40 36.77320 26.41226 38119 ft 448 kts 326°
2026-05-08 13:40 36.82851 26.37624 38120 ft 449 kts 326°
2026-05-08 13:41 36.88398 26.34007 38118 ft 449 kts 326°
2026-05-08 13:41 36.93943 26.30386 38118 ft 449 kts 326°
2026-05-08 13:42 36.99486 26.26760 38119 ft 450 kts 326°
2026-05-08 13:42 37.05000 26.23144 38113 ft 450 kts 326°
2026-05-08 13:43 37.10549 26.19501 38120 ft 451 kts 326°
2026-05-08 13:43 37.16119 26.15840 38113 ft 451 kts 326°
2026-05-08 13:44 37.21684 26.12175 38114 ft 452 kts 326°
2026-05-08 13:44 37.27262 26.08494 38115 ft 452 kts 326°
2026-05-08 13:45 37.32835 26.04811 38113 ft 453 kts 326°
2026-05-08 13:45 37.38372 26.01145 38113 ft 453 kts 326°
2026-05-08 13:46 37.43986 25.97423 38110 ft 454 kts 326°
2026-05-08 13:46 37.49544 25.93730 38114 ft 455 kts 326°
2026-05-08 13:47 37.55153 25.89998 38111 ft 456 kts 326°
2026-05-08 13:47 37.60741 25.86166 38107 ft 455 kts 324°
2026-05-08 13:48 37.66109 25.81957 38108 ft 455 kts 322°
2026-05-08 13:48 37.71422 25.77603 38106 ft 455 kts 321°
2026-05-08 13:49 37.76737 25.73238 38108 ft 456 kts 322°
2026-05-08 13:49 37.82060 25.68915 38106 ft 457 kts 322°
2026-05-08 13:50 37.87445 25.64569 38100 ft 456 kts 322°
2026-05-08 13:50 37.92800 25.60247 38103 ft 456 kts 322°
2026-05-08 13:51 37.98139 25.55927 38100 ft 455 kts 322°
2026-05-08 13:51 38.03449 25.51621 38102 ft 455 kts 322°
2026-05-08 13:52 38.08813 25.47263 38103 ft 454 kts 322°
2026-05-08 13:52 38.14101 25.42960 38089 ft 454 kts 322°
2026-05-08 13:53 38.19417 25.38625 38093 ft 454 kts 322°
2026-05-08 13:53 38.24736 25.34281 38090 ft 454 kts 321°
2026-05-08 13:54 38.30047 25.29935 38089 ft 454 kts 321°
2026-05-08 13:54 38.35356 25.25584 38086 ft 454 kts 321°
2026-05-08 13:55 38.40664 25.21226 38082 ft 454 kts 321°
2026-05-08 13:56 38.48597 25.14697 38082 ft 454 kts 321°
2026-05-08 13:56 38.53912 25.10314 38077 ft 455 kts 321°
2026-05-08 13:57 38.59227 25.05923 38079 ft 455 kts 321°
2026-05-08 13:57 38.64539 25.01526 38076 ft 455 kts 321°
2026-05-08 13:58 38.69864 24.97111 38075 ft 456 kts 321°
2026-05-08 13:58 38.75187 24.92689 38071 ft 457 kts 321°
2026-05-08 13:59 38.80536 24.88238 38076 ft 458 kts 321°
2026-05-08 13:59 38.85851 24.83808 38074 ft 459 kts 321°
2026-05-08 14:00 38.91209 24.79333 38068 ft 460 kts 321°
2026-05-08 14:00 38.96578 24.74841 38078 ft 461 kts 321°
2026-05-08 14:01 39.01949 24.70338 38060 ft 462 kts 321°
2026-05-08 14:01 39.07342 24.65808 38060 ft 463 kts 321°
2026-05-08 14:02 39.12743 24.61264 38061 ft 464 kts 321°
2026-05-08 14:02 39.18162 24.56696 38061 ft 465 kts 321°
2026-05-08 14:03 39.23540 24.52156 38060 ft 466 kts 321°
2026-05-08 14:03 39.28978 24.47555 38061 ft 467 kts 321°
2026-05-08 14:04 39.34418 24.42944 38064 ft 467 kts 321°
2026-05-08 14:04 39.39863 24.38320 38062 ft 468 kts 321°
2026-05-08 14:05 39.45277 24.33713 38057 ft 469 kts 321°
2026-05-08 14:05 39.50729 24.29065 38056 ft 470 kts 321°
2026-05-08 14:06 39.56199 24.24393 38061 ft 470 kts 321°
2026-05-08 14:06 39.61669 24.19713 38058 ft 471 kts 321°
2026-05-08 14:07 39.67133 24.15028 38058 ft 471 kts 321°
2026-05-08 14:07 39.72602 24.10330 38060 ft 471 kts 321°
2026-05-08 14:08 39.78074 24.05621 38060 ft 472 kts 321°
2026-05-08 14:08 39.83517 24.00926 38062 ft 472 kts 321°
2026-05-08 14:09 39.88991 23.96196 38062 ft 473 kts 321°
2026-05-08 14:09 39.94468 23.91454 38057 ft 473 kts 321°
2026-05-08 14:10 39.99989 23.86665 38057 ft 473 kts 321°
2026-05-08 14:10 40.05433 23.81933 38052 ft 474 kts 321°
2026-05-08 14:11 40.10927 23.77147 38055 ft 474 kts 321°
2026-05-08 14:11 40.16413 23.72359 38058 ft 475 kts 321°
2026-05-08 14:12 40.21916 23.67546 38060 ft 475 kts 321°
2026-05-08 14:12 40.27416 23.62728 38058 ft 476 kts 321°
2026-05-08 14:13 40.32928 23.57890 38054 ft 477 kts 321°
2026-05-08 14:13 40.38440 23.53042 38058 ft 477 kts 321°
2026-05-08 14:14 40.43951 23.48186 38054 ft 478 kts 321°
2026-05-08 14:14 40.49457 23.43323 38055 ft 478 kts 321°
2026-05-08 14:15 40.54968 23.38442 38060 ft 478 kts 321°
2026-05-08 14:15 40.60484 23.33545 38044 ft 478 kts 321°
2026-05-08 14:16 40.66011 23.28638 38049 ft 478 kts 321°
2026-05-08 14:16 40.71522 23.23733 38056 ft 478 kts 321°
2026-05-08 14:17 40.77038 23.18804 38061 ft 478 kts 321°
2026-05-08 14:17 40.82539 23.13875 38064 ft 478 kts 321°
2026-05-08 14:18 40.88032 23.08926 38056 ft 478 kts 321°
2026-05-08 14:18 40.93538 23.03961 38052 ft 479 kts 321°
2026-05-08 14:19 40.99018 22.99025 38062 ft 479 kts 321°
2026-05-08 14:19 41.04531 22.94056 38054 ft 479 kts 321°
2026-05-08 14:20 41.10050 22.89072 38048 ft 480 kts 321°
2026-05-08 14:20 41.15562 22.84085 38051 ft 480 kts 321°
2026-05-08 14:21 41.21087 22.79073 38052 ft 480 kts 321°
2026-05-08 14:21 41.26223 22.73494 38054 ft 475 kts 311°
2026-05-08 14:22 41.30769 22.67143 38048 ft 474 kts 309°
2026-05-08 14:22 41.34448 22.61733 38047 ft 473 kts 308°
2026-05-08 14:23 41.38834 22.55191 38045 ft 473 kts 308°
2026-05-08 14:23 41.43229 22.48659 38037 ft 473 kts 308°
2026-05-08 14:24 41.47622 22.42167 38034 ft 473 kts 308°
2026-05-08 14:24 41.52031 22.35656 38028 ft 473 kts 308°
2026-05-08 14:25 41.56447 22.29124 38011 ft 473 kts 308°
2026-05-08 14:25 41.60852 22.22592 38018 ft 473 kts 308°
2026-05-08 14:26 41.65252 22.16054 38031 ft 473 kts 308°
2026-05-08 14:26 41.69657 22.09492 38021 ft 473 kts 308°
2026-05-08 14:27 41.74053 22.02929 38014 ft 473 kts 308°
2026-05-08 14:27 41.78446 21.96355 38013 ft 473 kts 308°
2026-05-08 14:28 41.82831 21.89779 38016 ft 473 kts 308°
2026-05-08 14:28 41.87217 21.83188 38019 ft 473 kts 308°
2026-05-08 14:29 41.91601 21.76585 38018 ft 473 kts 308°
2026-05-08 14:29 41.95973 21.69985 38021 ft 473 kts 308°
2026-05-08 14:30 42.00349 21.63363 38017 ft 473 kts 308°
2026-05-08 14:30 42.04717 21.56740 38023 ft 473 kts 308°
2026-05-08 14:31 42.09053 21.50150 38020 ft 473 kts 308°
2026-05-08 14:31 42.13413 21.43510 38021 ft 473 kts 308°
2026-05-08 14:32 42.19892 21.33469 38025 ft 472 kts 307°
2026-05-08 14:32 42.24139 21.26704 38027 ft 472 kts 307°
2026-05-08 14:33 42.28380 21.19930 38030 ft 472 kts 307°
2026-05-08 14:33 42.32617 21.13169 38040 ft 471 kts 307°
2026-05-08 14:34 42.36855 21.06403 38044 ft 471 kts 307°
2026-05-08 14:34 42.41086 20.99635 38044 ft 471 kts 307°
2026-05-08 14:35 42.45289 20.92897 38044 ft 471 kts 307°
2026-05-08 14:35 42.49537 20.86066 38046 ft 471 kts 307°
2026-05-08 14:36 42.53718 20.79326 38044 ft 471 kts 307°
2026-05-08 14:36 42.57927 20.72527 38038 ft 470 kts 307°
2026-05-08 14:37 42.62130 20.65723 38044 ft 470 kts 307°
2026-05-08 14:37 42.66331 20.58908 38037 ft 470 kts 307°
2026-05-08 14:38 42.70527 20.52083 38036 ft 470 kts 307°
2026-05-08 14:38 42.74719 20.45250 38032 ft 470 kts 307°
2026-05-08 14:39 42.78906 20.38409 38034 ft 470 kts 307°
2026-05-08 14:39 42.83185 20.31662 38031 ft 472 kts 312°
2026-05-08 14:40 42.88135 20.25748 38037 ft 474 kts 317°
2026-05-08 14:40 42.93197 20.20054 38031 ft 474 kts 317°
2026-05-08 14:41 42.98341 20.14320 38033 ft 474 kts 317°
2026-05-08 14:41 43.03419 20.08636 38033 ft 474 kts 317°
2026-05-08 14:42 43.08508 20.02910 38022 ft 474 kts 317°
2026-05-08 14:42 43.13604 19.97154 38020 ft 474 kts 317°
2026-05-08 14:43 43.18687 19.91403 38022 ft 474 kts 317°
2026-05-08 14:43 43.23773 19.85634 38015 ft 474 kts 317°
2026-05-08 14:44 43.28855 19.79859 38011 ft 474 kts 317°
2026-05-08 14:44 43.33931 19.74080 38008 ft 474 kts 317°
2026-05-08 14:45 43.39013 19.68279 38009 ft 474 kts 317°
2026-05-08 14:45 43.44084 19.62477 38007 ft 474 kts 317°
2026-05-08 14:46 43.49121 19.56701 37999 ft 474 kts 317°
2026-05-08 14:46 43.54187 19.50879 38007 ft 474 kts 316°
2026-05-08 14:47 43.59252 19.45044 37994 ft 474 kts 316°
2026-05-08 14:47 43.64311 19.39201 37994 ft 475 kts 316°
2026-05-08 14:48 43.69376 19.33340 38011 ft 475 kts 316°
2026-05-08 14:48 43.74438 19.27469 38014 ft 475 kts 316°
2026-05-08 14:49 43.79481 19.21561 38004 ft 475 kts 316°
2026-05-08 14:49 43.84467 19.15562 38007 ft 474 kts 315°
2026-05-08 14:50 43.89427 19.09531 38008 ft 474 kts 315°
2026-05-08 14:50 43.94392 19.03474 38012 ft 475 kts 315°
2026-05-08 14:51 43.99320 18.97453 38014 ft 475 kts 315°
2026-05-08 14:51 44.04286 18.91373 38017 ft 475 kts 315°
2026-05-08 14:52 44.11716 18.82253 38015 ft 475 kts 315°
2026-05-08 14:53 44.16654 18.76167 38019 ft 474 kts 315°
2026-05-08 14:53 44.21601 18.70059 38019 ft 474 kts 315°
2026-05-08 14:54 44.26538 18.63954 38023 ft 474 kts 315°
2026-05-08 14:54 44.31446 18.57873 38021 ft 474 kts 315°
2026-05-08 14:55 44.36389 18.51727 38016 ft 475 kts 314°
2026-05-08 14:55 44.41302 18.45565 38022 ft 475 kts 314°
2026-05-08 14:56 44.46217 18.39393 38019 ft 474 kts 314°
2026-05-08 14:56 44.51136 18.33228 38021 ft 474 kts 314°
2026-05-08 14:57 44.56052 18.27064 38025 ft 474 kts 314°
2026-05-08 14:57 44.60967 18.20883 38018 ft 474 kts 314°
2026-05-08 14:58 44.65874 18.14697 38024 ft 474 kts 314°
2026-05-08 14:58 44.70782 18.08498 38019 ft 474 kts 314°
2026-05-08 14:59 44.75690 18.02283 38022 ft 474 kts 314°
2026-05-08 14:59 44.83049 17.92936 38022 ft 474 kts 314°
2026-05-08 15:00 44.87936 17.86710 38023 ft 474 kts 314°
2026-05-08 15:00 44.92831 17.80460 38020 ft 474 kts 314°
2026-05-08 15:01 44.97714 17.74208 38024 ft 474 kts 314°
2026-05-08 15:01 45.02599 17.67940 38026 ft 474 kts 314°
2026-05-08 15:02 45.07480 17.61661 38023 ft 474 kts 314°
2026-05-08 15:02 45.12326 17.55413 38023 ft 474 kts 313°
2026-05-08 15:03 45.17192 17.49125 38025 ft 473 kts 313°
2026-05-08 15:03 45.22047 17.42834 38036 ft 473 kts 313°
2026-05-08 15:04 45.26903 17.36528 38023 ft 472 kts 313°
2026-05-08 15:04 45.31751 17.30216 38037 ft 472 kts 313°
2026-05-08 15:05 45.36586 17.23905 38028 ft 472 kts 313°
2026-05-08 15:05 45.40606 17.18646 38035 ft 472 kts 313°
2026-05-08 15:06 45.45440 17.12310 38037 ft 472 kts 313°
2026-05-08 15:06 45.50263 17.05972 38033 ft 471 kts 313°
2026-05-08 15:07 45.55073 16.99636 38037 ft 471 kts 313°
2026-05-08 15:07 45.59884 16.93282 38039 ft 471 kts 313°
2026-05-08 15:08 45.64704 16.86902 38039 ft 471 kts 313°
2026-05-08 15:08 45.69505 16.80530 38032 ft 471 kts 313°
2026-05-08 15:09 45.74280 16.74177 38033 ft 471 kts 313°
2026-05-08 15:09 45.79111 16.67736 38035 ft 471 kts 313°
2026-05-08 15:10 45.83869 16.61375 38037 ft 471 kts 312°
2026-05-08 15:10 45.88656 16.54958 38037 ft 471 kts 312°
2026-05-08 15:11 45.93442 16.48529 38035 ft 471 kts 312°
2026-05-08 15:11 45.98222 16.42091 38036 ft 471 kts 312°
2026-05-08 15:12 46.02998 16.35645 38037 ft 470 kts 312°
2026-05-08 15:12 46.07764 16.29192 38037 ft 470 kts 312°
2026-05-08 15:13 46.12525 16.22729 38037 ft 470 kts 312°
2026-05-08 15:13 46.17281 16.16260 38038 ft 470 kts 312°
2026-05-08 15:14 46.22003 16.09825 38043 ft 470 kts 312°
2026-05-08 15:14 46.26742 16.03346 38044 ft 470 kts 312°
2026-05-08 15:15 46.31481 15.96834 38046 ft 469 kts 311°
2026-05-08 15:15 46.36132 15.90197 38047 ft 469 kts 310°
2026-05-08 15:16 46.40731 15.83485 38043 ft 469 kts 310°
2026-05-08 15:16 46.45323 15.76755 38050 ft 469 kts 310°
2026-05-08 15:17 46.49923 15.70010 38050 ft 470 kts 310°
2026-05-08 15:17 46.54522 15.63260 38049 ft 470 kts 310°
2026-05-08 15:18 46.59114 15.56503 38047 ft 470 kts 310°
2026-05-08 15:18 46.63691 15.49751 38045 ft 471 kts 310°
2026-05-08 15:19 46.68283 15.42959 38046 ft 471 kts 310°
2026-05-08 15:19 46.72883 15.36138 38050 ft 472 kts 310°
2026-05-08 15:20 46.77478 15.29307 38049 ft 472 kts 310°
2026-05-08 15:20 46.82072 15.22459 38051 ft 472 kts 310°
2026-05-08 15:21 46.86661 15.15600 38051 ft 472 kts 310°
2026-05-08 15:21 46.91250 15.08725 38053 ft 472 kts 310°
2026-05-08 15:22 46.95830 15.01843 38056 ft 472 kts 310°
2026-05-08 15:22 47.00408 14.94949 38060 ft 472 kts 310°
2026-05-08 15:23 47.04980 14.88042 38043 ft 472 kts 310°
2026-05-08 15:23 47.09551 14.81122 38045 ft 471 kts 310°
2026-05-08 15:24 47.14114 14.74195 38049 ft 471 kts 310°
2026-05-08 15:24 47.18664 14.67270 38052 ft 471 kts 310°
2026-05-08 15:25 47.22479 14.61450 38051 ft 471 kts 310°
2026-05-08 15:25 47.27025 14.54499 38054 ft 471 kts 310°
2026-05-08 15:26 47.31563 14.47539 38056 ft 471 kts 309°
2026-05-08 15:26 47.36099 14.40564 38059 ft 471 kts 309°
2026-05-08 15:27 47.40629 14.33584 38064 ft 470 kts 309°
2026-05-08 15:27 47.45149 14.26597 38062 ft 470 kts 309°
2026-05-08 15:28 47.49663 14.19597 38063 ft 471 kts 309°
2026-05-08 15:28 47.54187 14.12564 38061 ft 471 kts 309°
2026-05-08 15:29 47.58703 14.05529 38060 ft 472 kts 309°
2026-05-08 15:29 47.63208 13.98441 38061 ft 472 kts 309°
2026-05-08 15:30 47.67684 13.91311 38053 ft 472 kts 309°
2026-05-08 15:30 47.72130 13.84205 38053 ft 473 kts 309°
2026-05-08 15:31 47.76602 13.77046 38052 ft 473 kts 309°
2026-05-08 15:31 47.81074 13.69872 38050 ft 473 kts 309°
2026-05-08 15:32 47.85550 13.62683 38056 ft 473 kts 309°
2026-05-08 15:32 47.90023 13.55466 38046 ft 474 kts 309°
2026-05-08 15:33 47.94495 13.48229 38050 ft 474 kts 309°
2026-05-08 15:33 47.98961 13.40986 38050 ft 474 kts 309°
2026-05-08 15:34 48.03416 13.33741 38050 ft 474 kts 309°
2026-05-08 15:34 48.07873 13.26477 38051 ft 474 kts 309°
2026-05-08 15:35 48.12327 13.19194 38046 ft 474 kts 309°
2026-05-08 15:35 48.16777 13.11899 38041 ft 474 kts 309°
2026-05-08 15:36 48.20478 13.05853 38061 ft 474 kts 309°
2026-05-08 15:36 48.25668 12.97299 38053 ft 474 kts 308°
2026-05-08 15:37 48.30025 12.89936 38056 ft 474 kts 308°
2026-05-08 15:37 48.34390 12.82505 38058 ft 474 kts 308°
2026-05-08 15:38 48.38752 12.75067 38057 ft 475 kts 308°
2026-05-08 15:38 48.43121 12.67604 38056 ft 475 kts 308°
2026-05-08 15:39 48.47484 12.60134 38060 ft 475 kts 308°
2026-05-08 15:39 48.51850 12.52637 38059 ft 475 kts 308°
2026-05-08 15:40 48.56207 12.45134 38066 ft 475 kts 308°
2026-05-08 15:40 48.60566 12.37604 38067 ft 476 kts 308°
2026-05-08 15:41 48.64912 12.30065 38070 ft 476 kts 308°
2026-05-08 15:41 48.69219 12.22528 38072 ft 476 kts 308°
2026-05-08 15:42 48.73237 12.14609 38071 ft 473 kts 298°
2026-05-08 15:42 48.75708 12.05475 38074 ft 467 kts 281°
2026-05-08 15:43 48.76929 11.95816 38065 ft 466 kts 278°
2026-05-08 15:43 48.77936 11.86091 38065 ft 466 kts 277°
2026-05-08 15:44 48.78914 11.76352 38058 ft 467 kts 277°
2026-05-08 15:44 48.79900 11.66623 38053 ft 467 kts 277°
2026-05-08 15:45 48.80908 11.56888 38048 ft 467 kts 277°
2026-05-08 15:45 48.81915 11.47150 38050 ft 467 kts 277°
2026-05-08 15:46 48.82915 11.37406 38052 ft 468 kts 277°
2026-05-08 15:46 48.84240 11.27793 38052 ft 470 kts 286°
2026-05-08 15:47 48.87194 11.18925 38060 ft 476 kts 303°
2026-05-08 15:47 48.91748 11.11542 38066 ft 480 kts 314°
2026-05-08 15:48 48.99165 11.01263 38089 ft 481 kts 315°
2026-05-08 15:49 49.04116 10.94408 38106 ft 481 kts 314°
2026-05-08 15:49 49.08207 10.88675 38115 ft 481 kts 314°
2026-05-08 15:50 49.13117 10.81739 38123 ft 481 kts 314°
2026-05-08 15:50 49.18017 10.74788 38129 ft 481 kts 314°
2026-05-08 15:51 49.22826 10.67696 38137 ft 480 kts 313°
2026-05-08 15:51 49.27497 10.60355 38140 ft 480 kts 311°
2026-05-08 15:52 49.32124 10.52961 38132 ft 480 kts 311°
2026-05-08 15:52 49.36419 10.45150 38123 ft 478 kts 304°
2026-05-08 15:53 49.40288 10.36862 38102 ft 477 kts 303°
2026-05-08 15:53 49.42203 10.32692 37942 ft 477 kts 303°
2026-05-08 15:53 49.44092 10.28585 37752 ft 477 kts 303°
2026-05-08 15:53 49.46034 10.24367 37563 ft 478 kts 303°
2026-05-08 15:54 49.47934 10.20240 37376 ft 478 kts 303°
2026-05-08 15:54 49.49860 10.16052 37192 ft 478 kts 303°
2026-05-08 15:54 49.51776 10.11881 37011 ft 478 kts 303°
2026-05-08 15:54 49.53700 10.07686 36834 ft 479 kts 303°
2026-05-08 15:55 49.55622 10.03493 36655 ft 479 kts 303°
2026-05-08 15:55 49.59460 9.95105 35815 ft 478 kts 303°
2026-05-08 15:55 49.61377 9.90905 35217 ft 480 kts 303°
2026-05-08 15:56 49.63303 9.86677 34640 ft 481 kts 303°
2026-05-08 15:56 49.65227 9.82446 34059 ft 481 kts 303°
2026-05-08 15:56 49.67145 9.78226 33378 ft 482 kts 303°
2026-05-08 15:56 49.69106 9.74001 32706 ft 483 kts 304°
2026-05-08 15:57 49.71107 9.69847 32058 ft 483 kts 304°
2026-05-08 15:57 49.73122 9.65683 31419 ft 485 kts 304°
2026-05-08 15:57 49.75149 9.61499 30745 ft 486 kts 304°
2026-05-08 15:57 49.77180 9.57306 30035 ft 487 kts 304°
2026-05-08 15:58 49.79215 9.53102 29232 ft 485 kts 304°
2026-05-08 15:58 49.81212 9.48974 28452 ft 479 kts 304°
2026-05-08 15:58 49.83189 9.44872 27681 ft 476 kts 304°
2026-05-08 15:58 49.85174 9.40743 26876 ft 473 kts 304°
2026-05-08 15:59 49.87107 9.36720 26107 ft 453 kts 304°
2026-05-08 15:59 49.88942 9.32906 25368 ft 428 kts 304°
2026-05-08 15:59 49.90678 9.29310 24676 ft 406 kts 304°
2026-05-08 15:59 49.92269 9.25810 23971 ft 387 kts 298°
2026-05-08 16:00 49.93206 9.21999 23230 ft 376 kts 280°
2026-05-08 16:00 49.93344 9.17965 22415 ft 372 kts 266°
2026-05-08 16:00 49.93119 9.13986 21620 ft 369 kts 264°
2026-05-08 16:00 49.92860 9.10039 20844 ft 366 kts 263°
2026-05-08 16:01 49.92604 9.06127 20088 ft 363 kts 263°
2026-05-08 16:01 49.92349 9.02228 19327 ft 361 kts 263°
2026-05-08 16:01 49.92102 8.98423 18624 ft 358 kts 263°
2026-05-08 16:01 49.91859 8.94642 17863 ft 355 kts 263°
2026-05-08 16:02 49.91610 8.90806 17059 ft 351 kts 263°
2026-05-08 16:02 49.91366 8.87104 16309 ft 348 kts 263°
2026-05-08 16:02 49.91117 8.83400 15545 ft 344 kts 263°
2026-05-08 16:02 49.90866 8.79719 14800 ft 340 kts 263°
2026-05-08 16:03 49.90611 8.76057 14081 ft 344 kts 263°
2026-05-08 16:03 49.90346 8.72350 13297 ft 348 kts 263°
2026-05-08 16:03 49.90084 8.68686 12508 ft 332 kts 263°
2026-05-08 16:03 49.89840 8.65222 11758 ft 316 kts 263°
2026-05-08 16:04 49.89612 8.61928 11037 ft 304 kts 263°
2026-05-08 16:04 49.89396 8.58731 10309 ft 293 kts 263°
2026-05-08 16:04 49.89183 8.55623 9567 ft 285 kts 262°
2026-05-08 16:04 49.88808 8.52651 8802 ft 278 kts 255°
2026-05-08 16:05 49.88297 8.49794 8281 ft 275 kts 254°
2026-05-08 16:05 49.87763 8.46919 8102 ft 276 kts 253°
2026-05-08 16:05 49.87232 8.44069 8084 ft 274 kts 253°
2026-05-08 16:05 49.86706 8.41244 8082 ft 267 kts 253°
2026-05-08 16:06 49.86214 8.38591 8101 ft 247 kts 253°
2026-05-08 16:06 49.85751 8.36079 8104 ft 241 kts 253°
2026-05-08 16:06 49.85292 8.33588 8099 ft 241 kts 253°
2026-05-08 16:06 49.84833 8.31085 8091 ft 241 kts 253°
2026-05-08 16:07 49.84374 8.28587 8091 ft 241 kts 253°
2026-05-08 16:07 49.83916 8.26096 8095 ft 241 kts 253°
2026-05-08 16:07 49.83460 8.23613 8098 ft 241 kts 253°
2026-05-08 16:07 49.83002 8.21112 8099 ft 241 kts 253°
2026-05-08 16:08 49.82543 8.18611 7971 ft 242 kts 253°
2026-05-08 16:08 49.82086 8.16113 7730 ft 240 kts 253°
2026-05-08 16:08 49.81630 8.13625 7479 ft 239 kts 253°
2026-05-08 16:08 49.81227 8.11421 7266 ft 261 kts 254°
2026-05-08 16:09 49.80675 8.08410 6963 ft 316 kts 254°
2026-05-08 16:09 49.80282 8.06279 6758 ft 303 kts 253°
2026-05-08 16:09 49.79556 8.02363 6474 ft 264 kts 253°
2026-05-08 16:09 49.79096 7.99734 6221 ft 243 kts 258°
2026-05-08 16:10 49.79169 7.97194 5997 ft 237 kts 287°
2026-05-08 16:10 49.80039 7.95052 5740 ft 238 kts 317°
2026-05-08 16:10 49.81462 7.93770 5491 ft 238 kts 338°
2026-05-08 16:10 49.83013 7.92973 5247 ft 237 kts 342°
2026-05-08 16:11 49.84615 7.92372 4980 ft 236 kts 355°
2026-05-08 16:11 49.86207 7.92813 4727 ft 234 kts 25°
2026-05-08 16:11 49.87544 7.94263 4481 ft 236 kts 40°
2026-05-08 16:11 49.88670 7.96089 4233 ft 233 kts 52°
2026-05-08 16:12 49.89547 7.98168 4042 ft 229 kts 60°
2026-05-08 16:12 49.90246 8.00400 4012 ft 230 kts 66°
2026-05-08 16:12 49.90833 8.02713 4010 ft 230 kts 68°
2026-05-08 16:12 49.91376 8.05008 4010 ft 230 kts 69°
2026-05-08 16:13 49.91921 8.07330 4007 ft 227 kts 69°
2026-05-08 16:13 49.92434 8.09539 4016 ft 212 kts 69°
2026-05-08 16:13 49.92923 8.11664 4014 ft 209 kts 69°
2026-05-08 16:13 49.93413 8.13786 4012 ft 208 kts 69°
2026-05-08 16:14 49.93906 8.15906 4005 ft 209 kts 69°
2026-05-08 16:14 49.94400 8.18025 4005 ft 209 kts 69°
2026-05-08 16:14 49.94896 8.20148 4004 ft 209 kts 69°
2026-05-08 16:14 49.95389 8.22271 4005 ft 209 kts 69°
2026-05-08 16:15 49.95884 8.24398 3998 ft 207 kts 69°
2026-05-08 16:15 49.96359 8.26426 3998 ft 193 kts 69°
2026-05-08 16:15 49.96800 8.28293 4055 ft 177 kts 69°
2026-05-08 16:15 49.97228 8.30083 3866 ft 177 kts 69°
2026-05-08 16:16 49.97664 8.31920 3459 ft 186 kts 69°
2026-05-08 16:16 49.98111 8.33818 3165 ft 183 kts 69°
2026-05-08 16:16 49.98535 8.35622 2921 ft 175 kts 68°
2026-05-08 16:16 49.98948 8.37360 2677 ft 172 kts 68°
2026-05-08 16:17 49.99361 8.39108 2435 ft 172 kts 68°
2026-05-08 16:17 49.99641 8.40286 2254 ft 172 kts 68°
2026-05-08 16:17 50.00180 8.42569 1933 ft 170 kts 69°
2026-05-08 16:17 50.00587 8.44296 1715 ft 169 kts 68°
2026-05-08 16:18 50.00844 8.45381 1537 ft 163 kts 68°
2026-05-08 16:18 50.01172 8.46759 1379 ft 151 kts 67°
2026-05-08 16:18 50.01483 8.48064 1166 ft 152 kts 67°
2026-05-08 16:18 50.01847 8.49599 959 ft 143 kts 68°
2026-05-08 16:19 50.02180 8.50999 776 ft 134 kts 69°
2026-05-08 16:19 50.02498 8.52335 567 ft 132 kts 69°
2026-05-08 16:19 50.02828 8.53681 380 ft 133 kts 70°
2026-05-08 16:19 50.03108 8.54910 361 ft 93 kts 71°
2026-05-08 16:20 50.03264 8.55559 360 ft 38 kts 66°
2026-05-08 16:20 50.03368 8.55772 363 ft 21 kts 43°
2026-05-08 16:20 50.03475 8.55920 369 ft 21 kts 41°